Weather History for Fort Lauderdale, FL

Change the Weather History Date:

Monday, April 29, 2013

  Actual Average Record
Temperature  
Mean Temperature 78 °F -  
Max Temperature 84 °F 85 °F 93 °F (1971)
Min Temperature 75 °F 65 °F 51 °F (1992)
Cooling Degree Days 14    
Growing Degree Days 28 (Base 50)    
Moisture  
Dew Point 67 °F    
Average Humidity 70    
Maximum Humidity 84    
Minimum Humidity 62    
Precipitation  
Precipitation 0.01 in - - ()
Sea Level Pressure  
Sea Level Pressure 30.00 in    
Wind  
Wind Speed 12 mph (ESE)    
Max Wind Speed 17 mph    
Max Gust Speed 25 mph    
Visibility 10 miles    
Events Rain , Thunderstorm    
Averages and records for this station are not official NWS values.
T = Trace of Precipitation, MM = Missing Value Source: NWS Daily Summary

Daily Weather History Graph

Daily Weather History Graph

Search for Another Location

Airport:

Trip Planner

Search our weather history database for the weather conditions in past years. The results will help you decide how hot, cold, wet, or windy it might be!

Date:

Astronomy

Apr. 29, 2013 Rise Set
Actual Time 6:44 AM EDT 7:51 PM EDT
Civil Twilight 6:20 AM EDT 8:15 PM EDT
Nautical Twilight 5:51 AM EDT 8:44 PM EDT
Astronomical Twilight 5:22 AM EDT 9:14 PM EDT
Moon No Moon Rise 10:12 AM EDT (4/29)
Length of Visible Light 13h 55m
Length of Day
13h 06m
Waning Gibbous, 80% of the Moon is Illuminated
Apr 29
Waning Gibbous
May 2
Last Quarter
May 9
New
May 18
First Quarter
May 25
Full

Hourly Weather History & Observations

Time (EDT) Temp. Heat Index Dew Point Humidity Pressure Visibility Wind Dir Wind Speed Gust Speed Precip Events Conditions
12:53 AM 75.9 °F - 63.0 °F 64% 30.03 in 10.0 mi ESE 12.7 mph - N/A   Scattered Clouds
1:53 AM 75.9 °F - 64.0 °F 67% 30.01 in 10.0 mi ESE 10.4 mph - N/A   Partly Cloudy
2:53 AM 75.9 °F - 63.0 °F 64% 30.01 in 10.0 mi ESE 10.4 mph - N/A   Scattered Clouds
3:53 AM 75.9 °F - 63.0 °F 64% 29.99 in 10.0 mi ESE 12.7 mph - N/A   Scattered Clouds
4:53 AM 75.9 °F - 64.0 °F 67% 30.00 in 10.0 mi ESE 11.5 mph - N/A   Scattered Clouds
5:53 AM 75.0 °F - 64.0 °F 69% 30.00 in 10.0 mi ESE 11.5 mph - N/A   Scattered Clouds
6:53 AM 75.9 °F - 64.0 °F 67% 30.01 in 10.0 mi ESE 10.4 mph - N/A   Scattered Clouds
7:53 AM 77.0 °F - 66.0 °F 69% 30.03 in 10.0 mi ESE 12.7 mph - N/A   Scattered Clouds
8:53 AM 78.1 °F - 64.0 °F 62% 30.03 in 10.0 mi ESE 15.0 mph - N/A   Scattered Clouds
9:53 AM 79.0 °F - 66.0 °F 64% 30.04 in 10.0 mi East 16.1 mph - N/A   Mostly Cloudy
10:53 AM 81.0 °F 83.3 °F 66.9 °F 62% 30.05 in 10.0 mi ESE 15.0 mph 25.3 mph N/A   Mostly Cloudy
11:53 AM 82.0 °F 84.9 °F 68.0 °F 62% 30.04 in 10.0 mi ESE 15.0 mph 23.0 mph N/A   Scattered Clouds
12:53 PM 81.0 °F 83.3 °F 66.9 °F 62% 30.03 in 10.0 mi ESE 17.3 mph 21.9 mph N/A   Mostly Cloudy
1:53 PM 82.0 °F 84.9 °F 68.0 °F 62% 30.02 in 10.0 mi SE 13.8 mph 24.2 mph N/A   Mostly Cloudy
2:06 PM 80.6 °F 83.2 °F 68.0 °F 65% 30.00 in 10.0 mi ESE 15.0 mph 21.9 mph N/A   Mostly Cloudy
2:53 PM 78.1 °F - 68.0 °F 71% 29.99 in 10.0 mi ESE 15.0 mph - N/A   Partly Cloudy
3:53 PM 78.1 °F - 70.0 °F 76% 30.00 in 10.0 mi ESE 10.4 mph 18.4 mph 0.00 in Rain Light Rain
4:53 PM 77.0 °F - 70.0 °F 79% 29.99 in 10.0 mi SSE 12.7 mph - 0.00 in Rain , Thunderstorm Light Thunderstorms and Rain
5:53 PM 77.0 °F - 71.1 °F 82% 29.97 in 10.0 mi SSE 8.1 mph - 0.00 in   Overcast
6:53 PM 77.0 °F - 70.0 °F 79% 29.96 in 10.0 mi ESE 10.4 mph - 0.01 in   Mostly Cloudy
7:53 PM 75.9 °F - 68.0 °F 76% 29.97 in 10.0 mi SE 6.9 mph - N/A   Mostly Cloudy
8:53 PM 75.9 °F - 69.1 °F 79% 29.98 in 10.0 mi SE 11.5 mph - N/A   Scattered Clouds
9:53 PM 75.9 °F - 69.1 °F 79% 29.97 in 10.0 mi SSE 11.5 mph - N/A   Scattered Clouds
10:53 PM 75.9 °F - 70.0 °F 82% 29.98 in 10.0 mi SE 8.1 mph - N/A   Scattered Clouds
11:53 PM 75.0 °F - 70.0 °F 84% 29.98 in 10.0 mi SSE 9.2 mph - N/A   Clear